Find Starlink 32236

NORAD ID: 60418 Int'l Des: 2024-141 Owner: SPXS Country: US Constellation: starlink operational
LEOCIRCULAR

現在のビュー

3D地球を読み込み中...

About Starlink 32236

Starlink 32236 (NORAD 60418) is a starlink constellation satellite (v2 mini) launched Aug 10, 2024 by SPXS of US. It operates in LEO, CIRCULAR orbit with a mass of 730.00 kg.

Starlink 32236について

説明を読み込み中...

次回通過

Passes for default location (London). Set your location on the main map for personalized predictions.

高度履歴

Loading altitude history...

軌道要素

1 60418U 24141W 26165.67015027 -.00000459 00000-0 -24367-5 0 9996
2 60418 53.1603 151.0670 0001376 92.4766 267.6394 15.34385334104449
Epoch: Jun 14, 2026 • Age: 10 hours

現在のステータス

高度 464.2 km
速度 7.64 km/s
衛星直下点 32.02°N, 111.02°W
打ち上げ日 Aug 10, 2024
運用期間 1.8 years
タイプ internet

技術仕様

分類 Payload
質量 730.00 kg
乾燥質量 700.00 kg
総質量 730.00 kg
長さ 0.30 m
直径 4.10 m
スパン 29.00 m
形状 Box + pan
製造者 SPXS
バスタイプ Starlink V2M
フェーズステータス In Orbit
所有者/国 SPXS/US

Most Searched